Lid_Strength_Index
20 20 19 19 18 18 18 18 18 18 17 18 18 18 18 17 16 16 15 15 15 14 14 15 14 14 14 13 13 13 12 11 10 10 8 6 1 1 3 2 2 2 0
21 20 20 20 20 20 19 19 18 18 18 18 18 18 18 17 17 16 16 16 16 15 15 15 15 15 15 14 14 14 14 12 12 11 10 6 3 2 2 2 3 3 2
22 21 21 21 21 21 20 19 18 18 18 18 18 18 18 18 18 17 17 16 16 15 16 15 15 15 15 15 15 14 14 15 13 12 12 10 9 11 3 2 2 3 3
21 21 21 21 21 21 20 19 19 18 18 18 19 20 20 20 19 18 17 17 16 16 16 16 16 16 15 16 16 14 15 15 15 13 11 12 11 12 11 6 4 3 4
21 21 21 20 20 20 21 20 19 19 19 19 19 20 20 20 19 19 19 18 17 17 16 16 16 16 16 16 16 16 16 15 15 15 14 14 12 11 12 12 6 8 3
22 21 20 20 21 21 21 21 20 19 19 19 19 20 20 20 20 20 20 19 18 18 17 17 17 17 16 17 16 16 16 16 15 15 14 14 14 14 13 13 13 11 8
22 22 22 22 21 22 21 20 20 20 20 20 19 20 20 20 20 20 20 20 19 19 18 18 17 17 17 17 16 17 16 16 16 16 15 14 13 12 12 13 12 12 10
22 22 22 22 22 21 21 21 21 21 20 20 19 19 19 19 19 19 19 19 19 18 18 17 17 17 17 17 17 17 17 16 16 17 16 15 14 13 12 13 13 14 11
23 23 23 22 23 23 22 21 21 21 20 19 19 19 19 19 18 18 18 18 17 16 16 16 16 16 16 16 16 17 17 17 16 16 16 15 14 13 12 11 11 13 14
24 25 26 24 24 23 22 21 21 20 19 18 18 18 17 17 16 16 16 15 15 14 14 14 14 14 14 15 15 15 15 16 16 16 16 15 15 14 13 12 12 12 13
26 27 27 26 25 24 23 21 20 19 18 18 17 16 16 15 14 14 13 13 13 12 12 12 12 12 12 12 13 14 14 14 14 15 15 15 15 15 14 13 12 12 11
25 25 25 26 26 25 23 22 19 19 17 17 16 15 14 13 13 13 12 11 12 11 11 11 11 11 11 11 11 12 12 13 13 13 13 14 13 14 14 13 13 12 11
23 23 23 24 24 24 23 19 19 18 16 15 14 14 13 13 12 11 11 10 10 10 10 10 10 10 9 10 10 10 10 11 11 11 12 12 12 13 13 13 13 12 11
18 20 21 22 21 18 17 19 19 16 16 14 14 14 13 12 12 11 10 10 9 10 10 10 9 9 9 9 9 9 9 9 9 9 10 10 11 11 12 12 12 12 12
15 17 19 22 21 20 20 19 18 18 15 16 15 14 13 12 12 11 10 9 9 10 10 10 10 9 9 8 8 8 7 7 8 8 8 8 8 7 8 9 10 10 11
17 17 16 16 17 19 20 19 17 16 17 17 16 15 14 13 12 11 10 10 10 10 10 10 10 10 9 6 5 5 7 6 7 7 7 7 6 7 6 6 6 7 10
21 18 18 18 18 17 17 18 16 16 18 19 17 16 15 14 13 12 11 11 11 11 11 10 10 10 9 6 5 4 6 7 7 7 7 7 6 6 7 6 6 6 6
20 18 17 15 15 15 15 17 16 17 18 18 18 17 17 16 14 13 13 12 11 11 11 10 10 10 9 5 5 5 6 7 7 7 7 7 7 7 7 7 8 8 8
19 18 16 14 14 14 13 16 16 15 16 17 17 17 17 17 16 15 15 13 12 11 10 9 9 9 9 6 5 6 7 7 8 7 7 7 7 5 4 6 7 7 7
18 16 15 13 13 13 13 16 16 16 16 15 16 16 17 17 16 16 15 13 12 11 9 9 9 8 9 7 6 6 7 8 7 7 7 5 6 5 4 6 6 8 8
17 16 15 15 13 13 14 16 15 15 14 14 16 16 17 17 16 15 13 13 13 11 11 10 10 10 9 9 6 5 7 7 8 7 7 7 5 5 5 5 6 7 6
14 12 14 15 13 13 13 14 15 13 14 16 17 16 16 15 13 14 13 13 12 12 12 12 12 11 10 7 6 5 5 5 7 8 7 7 5 5 5 5 4 4 4
14 13 15 15 14 13 14 15 13 15 15 17 17 16 16 15 14 14 13 13 12 12 12 13 13 13 10 8 6 6 6 5 7 6 7 5 5 5 6 5 5 5 7
14 13 14 14 14 14 12 13 14 13 17 16 15 14 15 14 13 13 12 12 12 12 12 13 13 12 11 9 9 8 7 5 6 6 6 5 5 6 7 7 8 8 9
14 14 14 15 14 13 13 14 12 12 14 14 14 14 13 14 14 13 12 11 10 10 10 10 11 11 11 10 7 6 7 7 6 6 7 9 10 10 10 10 9 9 9
15 15 15 15 14 14 14 14 13 13 15 15 13 13 13 13 13 13 12 8 7 6 6 7 8 9 8 7 6 6 6 5 6 9 12 13 12 12 12 12 11 11 10